Mobile, AL

4:24 PM CDT on April 23, 2018 (GMT -0500)
Mobile Regional

Weather History for KMOB - March, 2013

Change the Weather History Date:

Tuesday, March 5, 2013

  Actual Average Record
Temperature  
Mean Temperature 60 °F 58 °F  
Max Temperature 74 °F 69 °F 82 °F (1910)
Min Temperature 45 °F 47 °F 22 °F (2002)
Degree Days  
Heating Degree Days 5 8  
Month to date heating degree days 87 41  
Since 1 July heating degree days 1263 1483  
Cooling Degree Days 0 1  
Month to date cooling degree days 0 5  
Year to date cooling degree days 27 21  
Growing Degree Days 9 (Base 50)    
Moisture  
Dew Point 51 °F    
Average Humidity 64    
Maximum Humidity 78    
Minimum Humidity 49    
Precipitation  
Precipitation 0.00 in 0.20 in 6.41 in (1935)
Month to date precipitation 0.00 1.00  
Year to date precipitation 14.18 11.77  
Snow  
Snow 0.00 in 0.00 in - ()
Month to date snowfall 0.0 0.0  
Since 1 July snowfall 0.0 0.1  
Snow Depth 0.00 in    
Sea Level Pressure  
Sea Level Pressure 30.03 in    
Wind  
Wind Speed 11 mph (WSW)    
Max Wind Speed 25 mph    
Max Gust Speed 33 mph    
Visibility 10 miles    
Events      
T = Trace of Precipitation, MM = Missing Value Source: NWS Daily Summary

Daily Weather History Graph

Daily Weather History Graph

Search for Another Location

Airport or City:

Astronomy

Mar. 05, 2013 Rise Set
Actual Time 6:14 AM CST 5:54 PM CST
Civil Twilight 5:50 AM CST 6:18 PM CST
Nautical Twilight 5:22 AM CST 6:46 PM CST
Astronomical Twilight 4:54 AM CST 7:14 PM CST
Moon 1:08 AM CST (3/5) 11:51 AM CST (3/5)
Length of Visible Light 12h 28m
Length of Day
11h 40m
Last Quarter, 40% of the Moon is Illuminated
Mar 5
Last Quarter
Mar 11
New
Mar 19
First Quarter
Mar 27
Full
Apr 2
Last Quarter

Hourly Weather History & Observations

Time (CST) Temp. Windchill Dew Point Humidity Pressure Visibility Wind Dir Wind Speed Gust Speed Precip Events Conditions
1:56 AM 61.0 °F - 51.1 °F 70% 29.99 in 10.0 mi SSW 12.7 mph - N/A   Scattered Clouds
2:56 AM 61.0 °F - 51.1 °F 70% 29.98 in 10.0 mi SSW 6.9 mph - N/A   Mostly Cloudy
3:56 AM 60.8 °F - 53.6 °F 77% 29.99 in 10.0 mi SW 8.1 mph - N/A   Mostly Cloudy
4:56 AM 61.0 °F - 53.1 °F 75% 30.00 in 10.0 mi SSW 5.8 mph - N/A   Mostly Cloudy
5:56 AM 61.0 °F - 54.0 °F 78% 29.99 in 10.0 mi South 6.9 mph - N/A   Mostly Cloudy
6:56 AM 61.0 °F - 54.0 °F 78% 30.01 in 10.0 mi SSW 6.9 mph - N/A   Overcast
7:56 AM 63.0 °F - 55.0 °F 75% 30.05 in 10.0 mi WSW 6.9 mph - N/A   Overcast
8:56 AM 64.9 °F - 55.0 °F 70% 30.06 in 10.0 mi SW 10.4 mph - N/A   Overcast
9:56 AM 69.1 °F - 55.9 °F 63% 30.04 in 10.0 mi SW 15.0 mph 24.2 mph N/A   Mostly Cloudy
10:56 AM 72.0 °F - 57.0 °F 59% 30.03 in 10.0 mi SSW 23.0 mph 29.9 mph N/A   Mostly Cloudy
11:56 AM 71.1 °F - 57.0 °F 61% 30.00 in 10.0 mi SW 19.6 mph 25.3 mph N/A   Mostly Cloudy
12:56 PM 69.1 °F - 57.9 °F 68% 29.99 in 10.0 mi SW 19.6 mph 29.9 mph N/A   Overcast
1:24 PM 69.8 °F - 57.2 °F 64% 29.98 in 10.0 mi SW 18.4 mph 31.1 mph N/A   Overcast
1:56 PM 70.0 °F - 57.9 °F 65% 29.96 in 10.0 mi SW 16.1 mph 28.8 mph N/A   Mostly Cloudy
2:27 PM 71.6 °F - 59.0 °F 64% 29.95 in 10.0 mi SW 10.4 mph 21.9 mph N/A   Mostly Cloudy
2:56 PM 73.0 °F - 57.9 °F 59% 29.94 in 10.0 mi SW 15.0 mph 25.3 mph N/A   Mostly Cloudy
3:56 PM 71.1 °F - 57.9 °F 63% 29.94 in 10.0 mi WSW 10.4 mph - N/A   Overcast
4:56 PM 70.0 °F - 55.0 °F 59% 29.97 in 10.0 mi NNW 12.7 mph 24.2 mph N/A   Mostly Cloudy
5:56 PM 64.9 °F - 48.9 °F 56% 30.02 in 10.0 mi NNW 13.8 mph 21.9 mph N/A   Scattered Clouds
6:56 PM 60.1 °F - 41.0 °F 49% 30.06 in 10.0 mi NW 9.2 mph - N/A   Partly Cloudy
7:56 PM 55.9 °F - 39.9 °F 55% 30.09 in 10.0 mi North 15.0 mph - N/A   Clear
8:56 PM 53.1 °F - 36.0 °F 52% 30.12 in 10.0 mi North 11.5 mph - N/A   Clear
9:56 PM 48.9 °F - 37.0 °F 64% 30.14 in 10.0 mi North 5.8 mph - N/A   Clear
10:56 PM 46.0 °F 43.1 °F 37.0 °F 71% 30.15 in 10.0 mi NNW 5.8 mph - N/A   Clear
11:56 PM 45.0 °F 42.6 °F 37.0 °F 74% 30.16 in 10.0 mi WNW 4.6 mph - N/A   Clear